星链-5644 (STARLINK-5644 )

导读

STARLINK-5644是由美国太空探索技术公司(SpaceX)运营的星链互联网卫星,于2023年1月26日发射入轨,属于星链星座组网卫星。星链项目旨在通过近地轨道卫星群,为全球提供高速互联网接入服务,该卫星持续为全球偏远地区、海上及航空场景等提供网络连接支持。

基本信息
目录编号:
55369
目录名称:
STARLINK-5644
国际标识:
2023-013AQ
轨道中心:
EARTH
卫星名称:
星链-5644
卫星全名:
星链-5644 (STARLINK-5644 )
卫星状态:
在轨 (已飞行1317 天)
发射日期:
2023-01-26 UTC
国别 :
美国 (US)
星等 :
--
轨道信息
数据来源 国际轨道数据
星历时间: 2026-09-04T02:49:56+0800
11小时前
查看轨道信息
半长轴: 6861.204km
偏心率: 0.0001381
轨道倾角: 43.004°
近地点辐角 255.615°
升交点赤经 35.482°
平近点角 104.455°
近地点: 482.119km
远地点: 484.015km
周期: 94.267分钟
每日圈数: 15.275741
详细信息
固有亮度:
5
最大亮度:
2.5
卫星平台:
Starlink v1.5
覆盖范围:
全球
运营商:
太空探索技术公司
运营商所在国:
美国
制造商(研发单位):
太空探索技术公司
制造商所在国:
美国
使用方式:
暂无
卫星简介
星链(Starlink)计划是由太空探索技术公司(SpaceX)提出的一个巨型低轨卫星互联网星座项目,计划在2019年至2024年间在太空搭建由约1.2万颗卫星组成的“星链”网络,其中1584颗将部署在地球上空550千米处的近地轨道,并从2020年开始工作。该卫星仍在工作。
2D轨道图
3D轨道图
轨道高度分析图
轨道倾角分析图
轨道综合分析图
查看轨道综合分析图
交会数据列表
事件ID 空间交会对象 最接近时刻(TCA) 交会距离 交会风险概率(CRP) 交会风险指数(CRI) 操作
CDM_260904-134305-536905-880721
2026-09-04T
13:43:58+0000
0.411 km
远距离
2.51321E-4 高风险 0.83
CDM_260904-151805-536905-880721
2026-09-04T
15:18:08+0000
1.127 km
极远距离
1.375016E-5 中风险 0.58
CDM_260904-120905-536905-880721
2026-09-04T
12:09:49+0000
1.526 km
极远距离
4.93258E-6 低风险 0.49
CDM_260905-070105-536906-382721
2026-09-05T
07:01:04+0000
1.663 km
极远距离
3.727665E-6 低风险 0.46
CDM_260905-023005-536906-124121
OBJECT D (61241)
2026-09-05T
02:30:03+0000
2.237 km
极远距离
2.050609E-6 低风险 0.41
CDM_260904-165205-536905-880721
2026-09-04T
16:52:17+0000
2.381 km
极远距离
1.538832E-6 低风险 0.39
CDM_260903-192905-536906-394521
2026-09-03T
19:29:09+0000
2.889 km
极远距离
1.263319E-6 低风险 0.37
CDM_260904-103505-536905-880721
2026-09-04T
10:35:40+0000
2.776 km
极远距离
1.195461E-6 低风险 0.37